,,Stat5,,Stat1,,Stat2,,Stat3,,Stat4,,Wind1,,Wind1,
time,status,PA1M_AVG,status,PR1M_SUM,status,RH1M_AVG,status,SR1M_AVG,status,TA1M_AVG,status,W1dAve1m,status,W1sAve1m,
2002-11-14, 00:00:00,VALID,917.564,VALID,0,VALID,99.7218,VALID,-0.0169808,VALID,19.4729,VALID,2,VALID,1.53885,
2002-11-14, 00:01:00,VALID,917.564,VALID,0,VALID,99.7256,VALID,-0.0169808,VALID,19.4763,VALID,348,VALID,1.78618,
2002-11-14, 00:02:00,VALID,917.559,VALID,0,VALID,99.7243,VALID,0.0339617,VALID,19.4306,VALID,355,VALID,1.15144,
2002-11-14, 00:03:00,VALID,917.56,VALID,0,VALID,99.7281,VALID,0.0169808,VALID,19.4177,VALID,5,VALID,2.35051,
2002-11-14, 00:04:00,VALID,917.546,VALID,0,VALID,99.7307,VALID,0,VALID,19.4113,VALID,10,VALID,1.75273,
2002-11-14, 00:05:00,VALID,917.551,VALID,0,VALID,99.7307,VALID,-0.0509425,VALID,19.4284,VALID,357,VALID,0.97973,
2002-11-14, 00:06:00,VALID,917.541,VALID,0,VALID,99.7294,VALID,-0.101885,VALID,19.4289,VALID,10,VALID,1.8287,
2002-11-14, 00:07:00,VALID,917.527,VALID,0,VALID,99.7345,VALID,-0.101885,VALID,19.4358,VALID,15,VALID,1.24733,
2002-11-14, 00:08:00,VALID,917.527,VALID,0,VALID,99.7307,VALID,-0.101885,VALID,19.4517,VALID,20,VALID,0.93109,
2002-11-14, 00:09:00,VALID,917.525,VALID,0,VALID,99.7243,VALID,-0.0679233,VALID,19.4709,VALID,11,VALID,1.14802,
2002-11-14, 00:10:00,VALID,917.517,VALID,0,VALID,99.7319,VALID,-0.0679233,VALID,19.4674,VALID,15,VALID,1.47065,
2002-11-14, 00:11:00,VALID,917.517,VALID,0,VALID,99.723,VALID,-0.0509425,VALID,19.4833,VALID,357,VALID,0.797526,
2002-11-14, 00:12:00,VALID,917.519,VALID,0,VALID,99.7294,VALID,-0.0849042,VALID,19.4679,VALID,4,VALID,0.927734,
2002-11-14, 00:13:00,VALID,917.501,VALID,0,VALID,99.7141,VALID,-0.0339617,VALID,19.4803,VALID,17,VALID,0.917558,
2002-11-14, 00:14:00,VALID,917.503,VALID,0,VALID,99.7294,VALID,-0.0679233,VALID,19.4806,VALID,349,VALID,1.22944,
2002-11-14, 00:15:00,VALID,917.477,VALID,0,VALID,99.7205,VALID,-0.0339617,VALID,19.448,VALID,5,VALID,1.62932,
2002-11-14, 00:16:00,VALID,917.472,VALID,0,VALID,99.7256,VALID,-0.0849042,VALID,19.4353,VALID,349,VALID,1.17305,
2002-11-14, 00:17:00,VALID,917.47,VALID,0,VALID,99.7319,VALID,-0.0509425,VALID,19.4247,VALID,318,VALID,0.541941,
2002-11-14, 00:18:00,VALID,917.454,VALID,0,VALID,99.7243,VALID,-0.0849042,VALID,19.4418,VALID,15,VALID,0.804905,
2002-11-14, 00:19:00,VALID,917.443,VALID,0,VALID,99.7319,VALID,-0.0509425,VALID,19.4545,VALID,8,VALID,0.586782,
2002-11-14, 00:20:00,VALID,917.439,VALID,0,VALID,99.7141,VALID,-0.0169808,VALID,19.4855,VALID,25,VALID,0.879774,
2002-11-14, 00:21:00,VALID,917.436,VALID,0,VALID,99.7154,VALID,0.0509425,VALID,19.5116,VALID,35,VALID,0.372179,
2002-11-14, 00:22:00,VALID,917.414,VALID,0,VALID,99.7103,VALID,0.0509425,VALID,19.4985,VALID,23,VALID,0.491425,
2002-11-14, 00:23:00,VALID,917.406,VALID,0,VALID,99.7116,VALID,0.0509425,VALID,19.5243,VALID,27,VALID,0.374155,
2002-11-14, 00:24:00,VALID,917.383,VALID,0,VALID,99.718,VALID,0.0339617,VALID,19.5273,VALID,32,VALID,1.03906,
2002-11-14, 00:25:00,VALID,917.367,VALID,0,VALID,99.7091,VALID,0.0169808,VALID,19.5305,VALID,358,VALID,0.561655,
2002-11-14, 00:26:00,VALID,917.352,VALID,0,VALID,99.7192,VALID,0,VALID,19.5275,VALID,26,VALID,0.991992,
2002-11-14, 00:27:00,VALID,917.327,VALID,0,VALID,99.718,VALID,0.0169808,VALID,19.5273,VALID,4,VALID,0.624383,
2002-11-14, 00:28:00,VALID,917.322,VALID,0,VALID,99.7141,VALID,0.0339617,VALID,19.5504,VALID,13,VALID,0.625633,
2002-11-14, 00:29:00,VALID,917.301,VALID,0,VALID,99.718,VALID,0.0679233,VALID,19.5017,VALID,296,VALID,0.820101,
2002-11-14, 00:30:00,VALID,917.279,VALID,0,VALID,99.7154,VALID,0,VALID,19.453,VALID,325,VALID,0.602196,
2002-11-14, 00:31:00,VALID,917.267,VALID,0,VALID,99.7167,VALID,0.0509425,VALID,19.4694,VALID,10,VALID,0.591295,
2002-11-14, 00:32:00,VALID,917.254,VALID,0,VALID,99.7192,VALID,0.0169808,VALID,19.4754,VALID,360,VALID,0.74116,
2002-11-14, 00:33:00,VALID,917.246,VALID,0,VALID,99.7205,VALID,0.0509425,VALID,19.5049,VALID,4,VALID,0.633657,
2002-11-14, 00:34:00,VALID,917.235,VALID,0,VALID,99.723,VALID,0.0339617,VALID,19.5178,VALID,14,VALID,0.622466,
2002-11-14, 00:35:00,VALID,917.227,VALID,0,VALID,99.7154,VALID,0.0169808,VALID,19.5382,VALID,21,VALID,0.774877,
2002-11-14, 00:36:00,VALID,917.219,VALID,0,VALID,99.7218,VALID,0,VALID,19.5511,VALID,28,VALID,1.02877,
2002-11-14, 00:37:00,VALID,917.22,VALID,0,VALID,99.7192,VALID,0,VALID,19.577,VALID,21,VALID,1.32566,
2002-11-14, 00:38:00,VALID,917.2,VALID,0,VALID,99.7192,VALID,-0.0679233,VALID,19.5705,VALID,16,VALID,1.22348,
2002-11-14, 00:39:00,VALID,917.175,VALID,0,VALID,99.7129,VALID,0,VALID,19.5901,VALID,8,VALID,0.93316,
2002-11-14, 00:40:00,VALID,917.164,VALID,0,VALID,99.7167,VALID,-0.0339617,VALID,19.5541,VALID,263,VALID,0.529561,
2002-11-14, 00:41:00,VALID,917.138,VALID,0,VALID,99.7256,VALID,-0.0509425,VALID,19.5119,VALID,356,VALID,0.808824,
2002-11-14, 00:42:00,VALID,917.121,VALID,0,VALID,99.7167,VALID,0,VALID,19.5412,VALID,25,VALID,0.611133,
2002-11-14, 00:43:00,VALID,917.113,VALID,0,VALID,99.7205,VALID,-0.0339617,VALID,19.5613,VALID,23,VALID,0.738982,
2002-11-14, 00:44:00,VALID,917.085,VALID,0,VALID,99.7141,VALID,0,VALID,19.5511,VALID,11,VALID,0.883018,
2002-11-14, 00:45:00,VALID,917.092,VALID,0,VALID,99.7243,VALID,0,VALID,19.5765,VALID,29,VALID,0.57278,
2002-11-14, 00:46:00,VALID,917.067,VALID,0,VALID,99.7103,VALID,-0.0169808,VALID,19.5867,VALID,26,VALID,0.574805,
2002-11-14, 00:47:00,VALID,917.064,VALID,0,VALID,99.723,VALID,-0.0339617,VALID,19.5929,VALID,12,VALID,0.766653,
2002-11-14, 00:48:00,VALID,917.064,VALID,0,VALID,99.7192,VALID,-0.0339617,VALID,19.5899,VALID,12,VALID,0.376519,
2002-11-14, 00:49:00,VALID,917.049,VALID,0,VALID,99.7141,VALID,0,VALID,19.5805,VALID,349,VALID,0.453125,
2002-11-14, 00:50:00,VALID,917.038,VALID,0,VALID,99.7192,VALID,0,VALID,19.5511,VALID,352,VALID,0.461806,
2002-11-14, 00:51:00,VALID,917.031,VALID,0,VALID,99.7243,VALID,-0.0169808,VALID,19.5221,VALID,332,VALID,0.542752,
2002-11-14, 00:52:00,VALID,917.018,VALID,0,VALID,99.723,VALID,-0.0509425,VALID,19.5352,VALID,18,VALID,0.876715,
2002-11-14, 00:53:00,VALID,917.02,VALID,0,VALID,99.7218,VALID,-0.0339617,VALID,19.5648,VALID,16,VALID,1.13345,
2002-11-14, 00:54:00,VALID,916.996,VALID,0,VALID,99.7192,VALID,-0.0169808,VALID,19.5481,VALID,340,VALID,0.431127,
2002-11-14, 00:55:00,VALID,917.006,VALID,0,VALID,99.7218,VALID,-0.0169808,VALID,19.5549,VALID,12,VALID,0.193623,
2002-11-14, 00:56:00,VALID,916.982,VALID,0,VALID,99.7141,VALID,-0.0169808,VALID,19.5549,VALID,28,VALID,0.834961,
2002-11-14, 00:57:00,VALID,916.972,VALID,0,VALID,99.7218,VALID,-0.0169808,VALID,19.5742,VALID,9,VALID,0.532278,
2002-11-14, 00:58:00,VALID,916.97,VALID,0,VALID,99.7243,VALID,-0.0339617,VALID,19.5645,VALID,4,VALID,0.318201,
2002-11-14, 00:59:00,VALID,916.966,VALID,0,VALID,99.723,VALID,-0.0169808,VALID,19.5516,VALID,9,VALID,0.56609,
2002-11-14, 01:00:00,VALID,916.944,VALID,0,VALID,99.737,VALID,-0.0169808,VALID,19.5452,VALID,25,VALID,0.826858,
2002-11-14, 01:01:00,VALID,916.931,VALID,0,VALID,99.7281,VALID,-0.0339617,VALID,19.5447,VALID,356,VALID,0.853571,
2002-11-14, 01:02:00,VALID,916.919,VALID,0,VALID,99.7243,VALID,-0.0679233,VALID,19.5516,VALID,22,VALID,1.45354,
2002-11-14, 01:03:00,VALID,916.908,VALID,0,VALID,99.7281,VALID,-0.0339617,VALID,19.5611,VALID,21,VALID,1.01267,
2002-11-14, 01:04:00,VALID,916.904,VALID,0,VALID,99.737,VALID,-0.0169808,VALID,19.5837,VALID,14,VALID,0.520904,
2002-11-14, 01:05:00,VALID,916.903,VALID,0,VALID,99.7307,VALID,-0.0169808,VALID,19.574,VALID,2,VALID,0.422286,
2002-11-14, 01:06:00,VALID,916.879,VALID,0,VALID,99.7269,VALID,-0.0339617,VALID,19.5872,VALID,336,VALID,0.450648,
2002-11-14, 01:07:00,VALID,916.867,VALID,0,VALID,99.7243,VALID,-0.0339617,VALID,19.5608,VALID,323,VALID,0.871505,
2002-11-14, 01:08:00,VALID,916.85,VALID,0,VALID,99.7332,VALID,-0.0339617,VALID,19.5188,VALID,350,VALID,1.24157,
2002-11-14, 01:09:00,VALID,916.832,VALID,0,VALID,99.7307,VALID,-0.0169808,VALID,19.5027,VALID,32,VALID,0.708333,
2002-11-14, 01:10:00,VALID,916.827,VALID,0,VALID,99.7294,VALID,-0.0339617,VALID,19.5062,VALID,360,VALID,0.90435,
2002-11-14, 01:11:00,VALID,916.812,VALID,0,VALID,99.7307,VALID,-0.0509425,VALID,19.5161,VALID,34,VALID,0.765395,
2002-11-14, 01:12:00,VALID,916.791,VALID,0,VALID,99.7358,VALID,-0.0339617,VALID,19.5223,VALID,17,VALID,1.11543,
2002-11-14, 01:13:00,VALID,916.776,VALID,0,VALID,99.737,VALID,-0.0679233,VALID,19.5486,VALID,19,VALID,0.98137,
2002-11-14, 01:14:00,VALID,916.777,VALID,0,VALID,99.7269,VALID,-0.0339617,VALID,19.5549,VALID,29,VALID,0.364104,
2002-11-14, 01:15:00,VALID,916.747,VALID,0,VALID,99.7332,VALID,-0.0169808,VALID,19.5417,VALID,111,VALID,0.938117,
2002-11-14, 01:16:00,VALID,916.721,VALID,0,VALID,99.7383,VALID,0,VALID,19.5121,VALID,348,VALID,1.20918,
2002-11-14, 01:17:00,VALID,916.712,VALID,0,VALID,99.7383,VALID,-0.0339617,VALID,19.4898,VALID,358,VALID,1.05962,
2002-11-14, 01:18:00,VALID,916.709,VALID,0,VALID,99.7396,VALID,-0.0339617,VALID,19.496,VALID,20,VALID,0.801432,
2002-11-14, 01:19:00,VALID,916.684,VALID,0,VALID,99.7447,VALID,-0.0169808,VALID,19.5223,VALID,21,VALID,0.732686,
2002-11-14, 01:20:00,VALID,916.673,VALID,0,VALID,99.7294,VALID,-0.0339617,VALID,19.5449,VALID,25,VALID,1.29948,
2002-11-14, 01:21:00,VALID,916.667,VALID,0,VALID,99.7256,VALID,-0.0169808,VALID,19.5479,VALID,25,VALID,1.0918,
2002-11-14, 01:22:00,VALID,916.635,VALID,0,VALID,99.7269,VALID,-0.0339617,VALID,19.5484,VALID,20,VALID,0.984375,
2002-11-14, 01:23:00,VALID,916.635,VALID,0,VALID,99.7294,VALID,-0.0169808,VALID,19.5414,VALID,4,VALID,0.732052,
2002-11-14, 01:24:00,VALID,916.625,VALID,0,VALID,99.7243,VALID,-0.0339617,VALID,19.5452,VALID,13,VALID,1.01234,
2002-11-14, 01:25:00,VALID,916.623,VALID,0,VALID,99.7345,VALID,-0.0169808,VALID,19.5618,VALID,27,VALID,1.19869,
2002-11-14, 01:26:00,VALID,916.634,VALID,0,VALID,99.7269,VALID,-0.0679233,VALID,19.5705,VALID,27,VALID,1.30176,
2002-11-14, 01:27:00,VALID,916.634,VALID,0,VALID,99.7243,VALID,-0.0339617,VALID,19.5832,VALID,343,VALID,1.05777,
2002-11-14, 01:28:00,VALID,916.641,VALID,0,VALID,99.7345,VALID,-0.0339617,VALID,19.571,VALID,15,VALID,1.18792,
2002-11-14, 01:29:00,VALID,916.651,VALID,0,VALID,99.7345,VALID,-0.0169808,VALID,19.5511,VALID,15,VALID,1.78442,
2002-11-14, 01:30:00,VALID,916.651,VALID,0,VALID,99.7307,VALID,-0.0169808,VALID,19.5285,VALID,20,VALID,1.77555,
2002-11-14, 01:31:00,VALID,916.655,VALID,0,VALID,99.7332,VALID,-0.0169808,VALID,19.5285,VALID,23,VALID,1.10446,
2002-11-14, 01:32:00,VALID,916.653,VALID,0,VALID,99.7332,VALID,-0.0339617,VALID,19.5377,VALID,26,VALID,1.53043,
2002-11-14, 01:33:00,VALID,916.617,VALID,0,VALID,99.723,VALID,0,VALID,19.5578,VALID,19,VALID,1.44489,
2002-11-14, 01:34:00,VALID,916.618,VALID,0,VALID,99.7269,VALID,0,VALID,19.5514,VALID,17,VALID,1.08995,
2002-11-14, 01:35:00,VALID,916.607,VALID,0,VALID,99.7319,VALID,-0.0339617,VALID,19.5484,VALID,12,VALID,1.1213,
2002-11-14, 01:36:00,VALID,916.596,VALID,0,VALID,99.7269,VALID,-0.0679233,VALID,19.5355,VALID,22,VALID,1.28125,
2002-11-14, 01:37:00,VALID,916.583,VALID,0,VALID,99.7383,VALID,-0.0679233,VALID,19.5218,VALID,21,VALID,0.970189,
2002-11-14, 01:38:00,VALID,916.58,VALID,0,VALID,99.7319,VALID,-0.0339617,VALID,19.5352,VALID,21,VALID,1.06579,
2002-11-14, 01:39:00,VALID,916.578,VALID,0,VALID,99.7345,VALID,-0.0679233,VALID,19.5516,VALID,18,VALID,1.13932,
2002-11-14, 01:40:00,VALID,916.569,VALID,0,VALID,99.7294,VALID,-0.0849042,VALID,19.5578,VALID,9,VALID,0.850929,
2002-11-14, 01:41:00,VALID,916.573,VALID,0,VALID,99.7319,VALID,-0.0849042,VALID,19.5581,VALID,20,VALID,1.15786,
2002-11-14, 01:42:00,VALID,916.559,VALID,0,VALID,99.7319,VALID,-0.0509425,VALID,19.5708,VALID,23,VALID,0.583594,
2002-11-14, 01:43:00,VALID,916.532,VALID,0,VALID,99.7421,VALID,-0.0339617,VALID,19.5673,VALID,18,VALID,1.41286,
2002-11-14, 01:44:00,VALID,916.507,VALID,0,VALID,99.7307,VALID,-0.0339617,VALID,19.5481,VALID,16,VALID,1.17496,
2002-11-14, 01:45:00,VALID,916.503,VALID,0,VALID,99.7307,VALID,-0.0339617,VALID,19.5121,VALID,13,VALID,0.962582,
2002-11-14, 01:46:00,VALID,916.488,VALID,0,VALID,99.7358,VALID,-0.0509425,VALID,19.532,VALID,13,VALID,0.860742,
2002-11-14, 01:47:00,VALID,916.432,VALID,0,VALID,99.7307,VALID,0,VALID,19.5382,VALID,25,VALID,0.584498,
2002-11-14, 01:48:00,VALID,916.426,VALID,0,VALID,99.7243,VALID,-0.0509425,VALID,19.5509,VALID,13,VALID,0.227214,
2002-11-14, 01:49:00,VALID,916.392,VALID,0,VALID,99.7358,VALID,-0.0339617,VALID,19.5385,VALID,10,VALID,0.744792,
2002-11-14, 01:50:00,VALID,916.356,VALID,0,VALID,99.7408,VALID,0.0509425,VALID,19.53,VALID,15,VALID,1.06858,
2002-11-14, 01:51:00,VALID,916.334,VALID,0,VALID,99.7434,VALID,0.0679233,VALID,19.5372,VALID,22,VALID,0.711589,
2002-11-14, 01:52:00,VALID,916.316,VALID,0,VALID,99.7332,VALID,0.0339617,VALID,19.5628,VALID,32,VALID,0.536204,
2002-11-14, 01:53:00,VALID,916.289,VALID,0,VALID,99.7383,VALID,0.0509425,VALID,19.5752,VALID,27,VALID,1.0568,
2002-11-14, 01:54:00,VALID,916.268,VALID,0,VALID,99.7358,VALID,0.101885,VALID,19.5785,VALID,13,VALID,0.847039,
2002-11-14, 01:55:00,VALID,916.273,VALID,0,VALID,99.7345,VALID,0.0679233,VALID,19.5884,VALID,24,VALID,1.09797,
2002-11-14, 01:56:00,VALID,916.253,VALID,0,VALID,99.7358,VALID,0.0679233,VALID,19.5847,VALID,23,VALID,1.40313,
2002-11-14, 01:57:00,VALID,916.26,VALID,0,VALID,99.7408,VALID,0.0509425,VALID,19.5817,VALID,10,VALID,0.920641,
2002-11-14, 01:58:00,VALID,916.256,VALID,0,VALID,99.7408,VALID,0.0849042,VALID,19.5857,VALID,27,VALID,0.726985,
2002-11-14, 01:59:00,VALID,916.245,VALID,0,VALID,99.7447,VALID,0.0849042,VALID,19.5529,VALID,342,VALID,0.74451,
2002-11-14, 02:00:00,VALID,916.228,VALID,0,VALID,99.7485,VALID,0.0679233,VALID,19.4945,VALID,360,VALID,1.27914,
2002-11-14, 02:01:00,VALID,916.22,VALID,0,VALID,99.751,VALID,0.0339617,VALID,19.4947,VALID,19,VALID,0.896652,
2002-11-14, 02:02:00,VALID,916.187,VALID,0,VALID,99.7497,VALID,0.0679233,VALID,19.527,VALID,14,VALID,1.07669,
2002-11-14, 02:03:00,VALID,916.166,VALID,0,VALID,99.7383,VALID,0.0679233,VALID,19.53,VALID,21,VALID,0.917863,
2002-11-14, 02:04:00,VALID,916.138,VALID,0,VALID,99.7497,VALID,0.0679233,VALID,19.4908,VALID,18,VALID,0.574535,
2002-11-14, 02:05:00,VALID,916.117,VALID,0,VALID,99.751,VALID,0,VALID,19.4801,VALID,25,VALID,1.63713,
2002-11-14, 02:06:00,VALID,916.08,VALID,0,VALID,99.7637,VALID,-0.0509425,VALID,19.4935,VALID,11,VALID,1.68826,
2002-11-14, 02:07:00,VALID,916.053,VALID,0,VALID,99.7396,VALID,-0.0509425,VALID,19.4831,VALID,30,VALID,1.18894,
2002-11-14, 02:08:00,VALID,916.035,VALID,0,VALID,99.7548,VALID,-0.0509425,VALID,19.4612,VALID,18,VALID,1.74733,
2002-11-14, 02:09:00,VALID,916.005,VALID,0,VALID,99.751,VALID,-0.0509425,VALID,19.4572,VALID,17,VALID,1.44227,
2002-11-14, 02:10:00,VALID,915.996,VALID,0,VALID,99.7561,VALID,-0.0169808,VALID,19.4577,VALID,354,VALID,0.701436,
2002-11-14, 02:11:00,VALID,915.996,VALID,0,VALID,99.7548,VALID,-0.0169808,VALID,19.454,VALID,16,VALID,0.141085,
2002-11-14, 02:12:00,VALID,915.99,VALID,0,VALID,99.7574,VALID,-0.0679233,VALID,19.4542,VALID,18,VALID,0.635352,
2002-11-14, 02:13:00,VALID,915.991,VALID,0,VALID,99.7472,VALID,0,VALID,19.4604,VALID,22,VALID,0.860777,
2002-11-14, 02:14:00,VALID,915.983,VALID,0,VALID,99.7485,VALID,-0.0169808,VALID,19.4667,VALID,29,VALID,1.30345,
2002-11-14, 02:15:00,VALID,915.981,VALID,0,VALID,99.7497,VALID,0,VALID,19.4739,VALID,15,VALID,1.67619,
2002-11-14, 02:16:00,VALID,915.964,VALID,0,VALID,99.7548,VALID,-0.0679233,VALID,19.4739,VALID,15,VALID,1.35527,
2002-11-14, 02:17:00,VALID,915.992,VALID,0,VALID,99.7536,VALID,-0.0509425,VALID,19.4835,VALID,23,VALID,1.1875,
2002-11-14, 02:18:00,VALID,916.002,VALID,0.2,VALID,99.7536,VALID,-0.0679233,VALID,19.4542,VALID,1,VALID,1.98438,
2002-11-14, 02:19:00,VALID,915.974,VALID,0,VALID,99.7612,VALID,-0.0679233,VALID,19.4321,VALID,356,VALID,1.63112,
2002-11-14, 02:20:00,VALID,916.003,VALID,0,VALID,99.7536,VALID,-0.0339617,VALID,19.403,VALID,12,VALID,1.74718,
2002-11-14, 02:21:00,VALID,915.979,VALID,0,VALID,99.7612,VALID,-0.0509425,VALID,19.3832,VALID,20,VALID,1.69271,
2002-11-14, 02:22:00,VALID,915.984,VALID,0,VALID,99.7574,VALID,-0.0509425,VALID,19.3966,VALID,27,VALID,1.50038,
2002-11-14, 02:23:00,VALID,915.98,VALID,0,VALID,99.7612,VALID,-0.0339617,VALID,19.4324,VALID,30,VALID,1.0682,
2002-11-14, 02:24:00,VALID,915.973,VALID,0,VALID,99.7574,VALID,-0.0509425,VALID,19.4286,VALID,22,VALID,0.953331,
2002-11-14, 02:25:00,VALID,915.955,VALID,0,VALID,99.7612,VALID,-0.0339617,VALID,19.4256,VALID,347,VALID,1.0019,
2002-11-14, 02:26:00,VALID,915.949,VALID,0,VALID,99.7574,VALID,-0.0509425,VALID,19.4021,VALID,2,VALID,0.755078,
2002-11-14, 02:27:00,VALID,915.941,VALID,0,VALID,99.7536,VALID,-0.0339617,VALID,19.4254,VALID,14,VALID,0.472656,
2002-11-14, 02:28:00,VALID,915.912,VALID,0,VALID,99.7637,VALID,-0.0339617,VALID,19.4063,VALID,38,VALID,0.722551,
2002-11-14, 02:29:00,VALID,915.912,VALID,0,VALID,99.7637,VALID,-0.0339617,VALID,19.3707,VALID,268,VALID,0.798142,
2002-11-14, 02:30:00,VALID,915.901,VALID,0,VALID,99.765,VALID,-0.101885,VALID,19.3484,VALID,126,VALID,0.840794,
2002-11-14, 02:31:00,VALID,915.885,VALID,0,VALID,99.7675,VALID,-0.0849042,VALID,19.2994,VALID,33,VALID,1.09576,
2002-11-14, 02:32:00,VALID,915.904,VALID,0,VALID,99.7726,VALID,-0.0509425,VALID,19.2997,VALID,19,VALID,1.10999,
2002-11-14, 02:33:00,VALID,915.904,VALID,0,VALID,99.7637,VALID,-0.0509425,VALID,19.3186,VALID,23,VALID,1.45334,
2002-11-14, 02:34:00,VALID,915.9,VALID,0,VALID,99.7714,VALID,-0.0509425,VALID,19.3218,VALID,20,VALID,0.842061,
2002-11-14, 02:35:00,VALID,915.9,VALID,0,VALID,99.7587,VALID,-0.0169808,VALID,19.3419,VALID,36,VALID,0.577714,
2002-11-14, 02:36:00,VALID,915.885,VALID,0,VALID,99.7612,VALID,-0.0679233,VALID,19.3384,VALID,36,VALID,1.01639,
2002-11-14, 02:37:00,VALID,915.882,VALID,0,VALID,99.7663,VALID,-0.0679233,VALID,19.3352,VALID,46,VALID,0.178865,
2002-11-14, 02:38:00,VALID,915.87,VALID,0,VALID,99.7637,VALID,-0.0849042,VALID,19.3606,VALID,19,VALID,0.330181,
2002-11-14, 02:39:00,VALID,915.875,VALID,0,VALID,99.7587,VALID,-0.0509425,VALID,19.3576,VALID,12,VALID,0.665148,
2002-11-14, 02:40:00,VALID,915.859,VALID,0,VALID,99.7561,VALID,-0.0679233,VALID,19.3772,VALID,10,VALID,0.636613,
2002-11-14, 02:41:00,VALID,915.861,VALID,0,VALID,99.7599,VALID,-0.0509425,VALID,19.3546,VALID,29,VALID,0.497013,
2002-11-14, 02:42:00,VALID,915.839,VALID,0,VALID,99.7587,VALID,-0.0509425,VALID,19.332,VALID,25,VALID,0.297461,
2002-11-14, 02:43:00,VALID,915.82,VALID,0,VALID,99.7625,VALID,-0.0679233,VALID,19.3225,VALID,359,VALID,0.292869,
2002-11-14, 02:44:00,VALID,915.801,VALID,0,VALID,99.7663,VALID,-0.0679233,VALID,19.2897,VALID,28,VALID,0.957237,
2002-11-14, 02:45:00,VALID,915.771,VALID,0,VALID,99.779,VALID,-0.0849042,VALID,19.286,VALID,17,VALID,0.892681,
2002-11-14, 02:46:00,VALID,915.752,VALID,0,VALID,99.7637,VALID,-0.0339617,VALID,19.2796,VALID,10,VALID,0.568359,
2002-11-14, 02:47:00,VALID,915.758,VALID,0,VALID,99.7675,VALID,-0.0169808,VALID,19.2641,VALID,35,VALID,0.514391,
2002-11-14, 02:48:00,VALID,915.743,VALID,0,VALID,99.7701,VALID,-0.0509425,VALID,19.2736,VALID,28,VALID,0.662543,
2002-11-14, 02:49:00,VALID,915.729,VALID,0,VALID,99.7663,VALID,-0.0509425,VALID,19.3059,VALID,30,VALID,0.681588,
2002-11-14, 02:50:00,VALID,915.711,VALID,0,VALID,99.7752,VALID,-0.0849042,VALID,19.2803,VALID,17,VALID,1.02235,
2002-11-14, 02:51:00,VALID,915.721,VALID,0,VALID,99.7815,VALID,-0.101885,VALID,19.284,VALID,15,VALID,1.26671,
2002-11-14, 02:52:00,VALID,915.703,VALID,0,VALID,99.7777,VALID,-0.0679233,VALID,19.2706,VALID,356,VALID,1.17588,
2002-11-14, 02:53:00,VALID,915.693,VALID,0,VALID,99.7841,VALID,-0.0849042,VALID,19.2415,VALID,325,VALID,0.958615,
2002-11-14, 02:54:00,VALID,915.687,VALID,0,VALID,99.7841,VALID,-0.0849042,VALID,19.2192,VALID,2,VALID,1.02899,
2002-11-14, 02:55:00,VALID,915.656,VALID,0,VALID,99.7904,VALID,-0.0849042,VALID,19.215,VALID,313,VALID,0.391047,
2002-11-14, 02:56:00,VALID,915.649,VALID,0,VALID,99.7854,VALID,-0.101885,VALID,19.2318,VALID,348,VALID,0.335938,
2002-11-14, 02:57:00,VALID,915.609,VALID,0,VALID,99.7904,VALID,-0.0849042,VALID,19.2577,VALID,278,VALID,0.218956,
2002-11-14, 02:58:00,VALID,915.611,VALID,0,VALID,99.7765,VALID,-0.0339617,VALID,19.2738,VALID,29,VALID,0.749155,
2002-11-14, 02:59:00,VALID,915.589,VALID,0,VALID,99.779,VALID,-0.0509425,VALID,19.2962,VALID,20,VALID,0.940878,
2002-11-14, 03:00:00,VALID,915.576,VALID,0,VALID,99.7803,VALID,-0.0509425,VALID,19.3094,VALID,27,VALID,1.25676,
2002-11-14, 03:01:00,VALID,915.566,VALID,0,VALID,99.7777,VALID,-0.0509425,VALID,19.3223,VALID,26,VALID,0.965179,
2002-11-14, 03:02:00,VALID,915.542,VALID,0,VALID,99.7815,VALID,-0.0679233,VALID,19.2969,VALID,9,VALID,1.28331,
2002-11-14, 03:03:00,VALID,915.55,VALID,0,VALID,99.7777,VALID,-0.0849042,VALID,19.2902,VALID,31,VALID,0.721495,
2002-11-14, 03:04:00,VALID,915.541,VALID,0,VALID,99.779,VALID,-0.0679233,VALID,19.2932,VALID,22,VALID,0.912373,
2002-11-14, 03:05:00,VALID,915.525,VALID,0,VALID,99.7714,VALID,0.0169808,VALID,19.3049,VALID,23,VALID,0.929688,
2002-11-14, 03:06:00,VALID,915.535,VALID,0,VALID,99.7854,VALID,0.0169808,VALID,19.327,VALID,28,VALID,1.00648,
2002-11-14, 03:07:00,VALID,915.52,VALID,0,VALID,99.7879,VALID,0,VALID,19.3404,VALID,16,VALID,0.470806,
2002-11-14, 03:08:00,VALID,915.549,VALID,0,VALID,99.7752,VALID,0.0169808,VALID,19.3464,VALID,43,VALID,0.228413,
2002-11-14, 03:09:00,VALID,915.536,VALID,0,VALID,99.7815,VALID,0.0169808,VALID,19.3077,VALID,347,VALID,0.625434,
2002-11-14, 03:10:00,VALID,915.532,VALID,0,VALID,99.7866,VALID,0.0169808,VALID,19.2853,VALID,15,VALID,1.23057,
2002-11-14, 03:11:00,VALID,915.547,VALID,0,VALID,99.7841,VALID,0.0509425,VALID,19.2945,VALID,19,VALID,1.03355,
2002-11-14, 03:12:00,VALID,915.538,VALID,0,VALID,99.7943,VALID,0.0339617,VALID,19.3012,VALID,10,VALID,1.06875,
2002-11-14, 03:13:00,VALID,915.551,VALID,0,VALID,99.7943,VALID,0,VALID,19.2662,VALID,20,VALID,1.36699,
2002-11-14, 03:14:00,VALID,915.559,VALID,0,VALID,99.7828,VALID,0.0339617,VALID,19.2784,VALID,20,VALID,1.18421,
2002-11-14, 03:15:00,VALID,915.573,VALID,0,VALID,99.7879,VALID,0.0339617,VALID,19.2952,VALID,23,VALID,0.780839,
2002-11-14, 03:16:00,VALID,915.585,VALID,0,VALID,99.7879,VALID,0.0169808,VALID,19.2818,VALID,21,VALID,0.473047,
2002-11-14, 03:17:00,VALID,915.577,VALID,0,VALID,99.7854,VALID,0.0339617,VALID,19.2756,VALID,16,VALID,1.74877,
2002-11-14, 03:18:00,VALID,915.562,VALID,0,VALID,99.7854,VALID,0.0169808,VALID,19.2793,VALID,20,VALID,1.61372,
2002-11-14, 03:19:00,VALID,915.566,VALID,0,VALID,99.7777,VALID,0.0169808,VALID,19.2759,VALID,18,VALID,2.01035,
2002-11-14, 03:20:00,VALID,915.577,VALID,0,VALID,99.7879,VALID,-0.0339617,VALID,19.2445,VALID,20,VALID,1.61914,
2002-11-14, 03:21:00,VALID,915.516,VALID,0,VALID,99.7955,VALID,-0.0679233,VALID,19.2251,VALID,19,VALID,0.955729,
2002-11-14, 03:22:00,VALID,915.547,VALID,0,VALID,99.7904,VALID,-0.0509425,VALID,19.2323,VALID,21,VALID,0.767912,
2002-11-14, 03:23:00,VALID,915.545,VALID,0,VALID,99.793,VALID,-0.0849042,VALID,19.2122,VALID,13,VALID,1.82242,
2002-11-14, 03:24:00,VALID,915.538,VALID,0,VALID,99.793,VALID,-0.0509425,VALID,19.2256,VALID,22,VALID,1.94449,
2002-11-14, 03:25:00,VALID,915.551,VALID,0,VALID,99.7904,VALID,-0.0849042,VALID,19.2254,VALID,6,VALID,1.1647,
2002-11-14, 03:26:00,VALID,915.567,VALID,0,VALID,99.8044,VALID,-0.0169808,VALID,19.1995,VALID,2,VALID,0.965234,
2002-11-14, 03:27:00,VALID,915.551,VALID,0,VALID,99.7981,VALID,-0.0849042,VALID,19.2062,VALID,16,VALID,0.979235,
2002-11-14, 03:28:00,VALID,915.556,VALID,0,VALID,99.807,VALID,-0.101885,VALID,19.2224,VALID,29,VALID,0.731419,
2002-11-14, 03:29:00,VALID,915.552,VALID,0,VALID,99.7904,VALID,-0.0679233,VALID,19.2289,VALID,21,VALID,0.175042,
2002-11-14, 03:30:00,VALID,915.551,VALID,0,VALID,99.7943,VALID,-0.0849042,VALID,19.2381,VALID,21,VALID,0.285895,
2002-11-14, 03:31:00,VALID,915.545,VALID,0,VALID,99.7981,VALID,-0.0509425,VALID,19.245,VALID,4,VALID,0.410491,